Regional Weather Roundup
Issued by NWS State College, PA

Home | Current Version | Previous Version | Graphics & Text | Print | Product List | Glossary On
Versions: 1 2 3 4 5 6 7 8 9 10 11 12 13 14 15 16 17 18 19 20 21 22 23 24 25 26 27 28 29 30 31 32 33 34 35 36 37 38 39 40 41 42 43 44 45 46 47 48 49 50
518
ASUS41 KCTP 250003
RWRCTP

REGIONAL WEATHER ROUNDUP
NATIONAL WEATHER SERVICE STATE COLLEGE PA
800 PM EDT SUN JUL 24 2016

Note: "fair" indicates few or no clouds below 12,000 feet with no
significant weather and/or obstructions to visibility.

* = STATION THAT DOES NOT REPORT PRECIPITATION /E.G. RAIN...SNOW...ETC/
    THUNDER OR FOG.

PAZ002>004-007>009-013>016-020>023-029>032-250100-
WESTERN PENNSYLVANIA

CITY           SKY/WX    TMP DP  RH WIND       PRES   REMARKS
ERIE           PTCLDY    81  72  74 W5        29.97S
MEADVILLE      MOCLDY    76  68  76 S5        30.02R
FRANKLIN*      MOCLDY    73  70  88 S5        30.05S
NEW CASTLE     FAIR      78  75  90 CALM      30.02R
BEAVER COUNTY  NOT AVBL
BUTLER*        CLOUDY    73  70  88 CALM      30.05F
PITTSBURGH INT CLOUDY    75  71  87 S5        30.03S
PITTSBURGH     CLOUDY    75  71  87 CALM      30.03R
INDIANA*       CLEAR     73  73 100 CALM      30.07S
LATROBE        MOCLDY    73  73 100 SW7       30.05R
WASHINGTON CO* CLOUDY    75  70  83 CALM      30.03S
$$

PAZ004>006-010>012-017>019-024>028-033>037-041-042-045-046-049>053-250100-
CENTRAL PENNSYLVANIA

CITY           SKY/WX    TMP DP  RH WIND       PRES   REMARKS
BRADFORD       CLOUDY    76  66  71 S8        30.05R
DUBOIS         CLOUDY    71  68  90 SW6       30.05R
CLEARFIELD     LGT RAIN  72  69  90 VRB3      30.04F FOG
JOHNSTOWN      CLOUDY    72  66  81 W3        30.08F
ALTOONA        LGT RAIN  73  68  84 CALM      30.04F
STATE COLLEGE  LGT RAIN  72  70  94 CALM      30.04F
WILLIAMSPORT   CLOUDY    86  63  45 VRB3      29.92R
SELINSGROVE    CLOUDY    87  67  51 S6        29.94R
FT INDIANTOWN  CLOUDY    87  67  50 CALM      29.95S
CAPITAL CITY   MOCLDY    89  67  47 S8        29.93S
HARRISBURG     CLOUDY    88  73  61 S5        29.93S HX  95
YORK           CLOUDY    86  69  56 SE10      29.95S
$$

PAZ038>040-043-044-047-048-054-055-060>062-067>071-250100-
EASTERN PENNSYLVANIA

CITY           SKY/WX    TMP DP  RH WIND       PRES   REMARKS
SCRANTON       MOCLDY    87  58  37 SW3       29.96S
MOUNT POCONO   PTCLDY    74  60  61 CALM      30.03F
ALLENTOWN      PTCLDY    88  63  43 SW9       29.95R
QUAKERTOWN*    PTCLDY    86  64  48 CALM      29.97S
READING        PTCLDY    87  65  47 S9        29.94S
LANCASTER      CLOUDY    84  65  52 S8        29.96R
COATESVILLE    PTCLDY    82  66  57 CALM      30.00S
POTTSTOWN      PTCLDY    86  65  49 S3        29.97S
BLUE BELL      PTCLDY    82  66  57 SW5       29.96R
DOYLESTOWN     PTCLDY    84  62  47 SW5       29.95R
WILLOW GROVE   NOT AVBL
NORTH PHILA    MOCLDY    89  66  46 SW9       29.96R
PHILADELPHIA   MOCLDY    89  66  46 S9        29.96R
$$




USA.gov is the U.S. government's official web portal to all federal, state and local government web resources and services.